Wind_Speed
41 41 45 48 46 41 40 39 37 39 42 45 46 48 50 52 55 56 57 61 65 63 56 50 39 29 21 15 9 9 6 5 1 2 3 6 8 9 12 14 16 18 21 22
37 32 33 36 41 40 37 37 37 39 41 42 44 46 49 51 56 58 60 65 65 66 64 58 50 36 28 23 18 12 10 7 6 4 2 2 3 7 11 15 19 24 23 27
73 38 29 27 31 32 36 36 34 36 37 36 39 42 45 48 54 57 61 65 66 68 68 64 58 50 38 29 26 23 19 15 13 11 7 3 5 9 10 17 23 25 25 32
99 71 39 31 26 25 28 33 32 32 33 32 34 37 40 44 49 52 57 61 64 65 66 66 62 59 53 42 33 30 26 23 20 15 11 10 11 9 12 22 30 34 34 40
93 92 96 43 29 25 23 25 27 28 29 30 31 32 35 38 42 46 51 54 59 61 63 65 68 64 58 55 49 39 33 28 25 22 15 13 14 8 11 16 36 38 40 44
91 94 90 90 48 31 26 24 23 26 26 27 28 28 29 33 35 39 44 48 51 56 59 62 65 67 66 63 58 56 48 37 33 31 26 19 16 16 13 18 29 37 44 54
89 89 94 88 89 42 32 28 24 21 24 23 26 26 25 26 29 31 36 40 44 48 52 56 61 62 62 66 62 62 60 53 43 38 34 26 19 17 18 21 26 36 44 52
88 89 88 88 85 84 37 32 31 26 22 22 21 24 24 21 23 27 30 33 36 40 45 49 52 56 60 62 62 58 60 60 59 50 42 33 27 20 18 21 26 31 37 48
87 91 83 96 88 81 80 34 33 33 27 23 21 20 22 21 20 21 24 26 29 32 37 42 45 49 52 56 57 58 60 60 57 59 58 44 36 29 23 18 23 23 30 40
94 96 92 100 99 88 70 71 31 36 35 29 24 22 19 21 21 18 18 21 22 25 28 32 35 40 43 46 49 51 53 56 58 56 56 58 47 37 30 21 21 25 25 33
94 100 100 103 103 91 72 66 45 30 39 38 33 27 24 21 21 21 17 15 18 20 21 24 28 31 35 37 39 44 46 46 49 52 56 55 51 56 49 31 20 23 33 28
93 99 104 104 105 86 77 62 57 33 33 41 39 35 29 26 23 21 21 17 14 16 19 20 21 24 27 29 32 34 37 39 40 43 46 47 47 51 46 43 42 30 25 21
94 104 104 105 104 95 73 63 56 37 33 38 43 42 38 32 28 26 23 22 18 15 16 17 17 18 19 21 24 27 29 30 32 34 35 38 38 39 39 39 38 37 32 27
91 106 112 104 102 106 75 65 57 42 32 38 43 47 45 41 34 32 28 26 23 20 17 17 17 17 17 17 19 20 21 23 24 26 27 28 30 29 30 32 29 29 27 26
99 102 112 118 114 109 76 70 55 42 31 36 43 48 51 48 45 38 34 31 29 25 23 19 18 17 16 16 16 16 16 16 18 21 20 21 21 22 24 25 24 22 19 19
101 110 111 114 115 93 81 72 60 41 32 31 43 47 53 55 51 47 41 36 34 32 28 24 21 18 17 17 17 16 14 14 14 13 15 16 16 17 17 16 17 17 19 18
106 112 117 123 118 102 82 77 68 46 33 32 38 47 52 58 57 54 49 44 39 37 35 30 26 23 21 18 18 15 15 14 13 13 12 9 10 12 14 15 15 15 16 16
113 117 122 120 122 106 85 80 71 52 36 34 34 46 54 59 63 60 56 52 45 43 40 37 31 28 28 24 20 18 16 15 15 15 14 13 11 10 10 11 12 13 16 17
119 120 120 120 127 105 91 83 76 58 39 35 41 44 57 59 65 66 62 58 54 48 46 43 35 33 34 30 27 23 21 20 18 17 17 15 14 15 15 15 15 17 17 19
121 124 124 128 129 106 97 88 80 62 42 40 46 50 55 62 66 70 68 65 60 54 51 48 41 42 34 35 35 31 28 26 24 21 19 19 18 19 21 21 22 23 23 24
126 121 128 128 121 108 95 89 84 69 49 45 51 58 58 64 67 73 74 70 66 60 57 48 44 49 40 38 39 37 34 33 29 28 25 25 24 24 25 27 28 28 29 30
129 128 127 123 123 108 97 94 87 77 59 46 55 64 67 65 70 75 79 78 72 65 59 53 47 57 42 43 43 39 38 38 36 32 31 32 33 32 30 30 31 33 35 37
130 130 132 125 122 109 98 94 82 79 69 54 55 65 70 70 71 72 80 82 76 69 62 56 52 58 50 48 47 42 41 41 40 40 36 35 35 36 36 37 38 39 39 41
135 131 130 128 124 108 100 95 85 82 74 63 54 62 70 71 74 72 74 80 78 68 60 57 61 59 56 51 48 49 44 44 43 43 40 38 38 40 40 42 44 44 45 46
135 137 129 141 120 107 103 94 85 80 73 63 56 58 65 71 70 69 72 74 74 67 64 65 67 64 61 57 49 50 51 49 47 45 44 40 40 42 44 46 50 53 53 52
141 134 141 122 113 102 102 93 85 78 68 62 55 54 60 65 67 65 69 69 73 77 74 73 72 70 64 64 58 54 54 52 50 49 47 43 42 45 47 49 53 55 58 61
142 134 127 118 108 104 99 90 84 77 67 63 56 47 60 62 59 58 64 70 83 87 83 80 77 75 68 66 65 60 57 56 54 51 49 48 45 46 50 53 56 57 59 60
Wind_Direction
28 24 26 20 22 30 39 42 42 46 48 48 46 44 40 39 39 40 34 32 31 31 34 33 30 28 30 27 30 22 354 305 291 146 229 227 215 178 171 165 156 148 157 163
22 27 26 18 19 15 16 29 27 32 37 42 42 39 38 34 34 34 38 36 36 35 33 37 35 32 32 38 38 43 50 40 41 59 150 231 207 155 163 162 147 146 157 155
22 12 11 20 14 12 8 7 17 18 24 32 37 37 35 33 32 30 32 36 38 38 38 38 36 40 39 40 45 47 48 53 65 73 55 56 105 118 171 153 135 147 145 154
25 21 3 356 359 5 3 357 1 10 12 19 27 32 33 31 31 31 29 29 35 39 40 42 40 40 42 45 48 52 52 51 49 57 64 75 83 130 162 147 139 146 154 155
24 20 21 1 342 338 346 348 349 355 2 4 12 22 26 31 31 32 29 28 27 33 37 41 41 43 44 44 45 48 52 54 51 54 57 69 89 97 133 161 151 153 160 151
15 15 16 18 1 328 322 326 335 336 347 352 355 5 14 22 28 32 29 26 27 29 29 35 42 43 46 47 49 45 46 50 49 52 58 64 81 90 105 126 163 162 156 155
12 11 12 14 13 349 313 311 309 320 328 336 343 345 359 8 15 25 28 28 26 31 28 30 33 40 44 47 48 52 52 50 51 51 56 63 70 94 111 126 161 165 165 165
8 10 12 8 9 8 339 299 298 296 306 316 326 336 337 352 3 9 20 28 29 28 32 33 34 34 36 39 43 50 52 55 55 57 58 59 65 75 90 122 150 173 171 174
1 3 6 8 4 3 3 323 284 285 284 291 301 312 324 327 341 357 3 15 26 28 29 31 33 34 36 37 39 40 45 51 59 58 56 58 62 67 77 103 136 157 178 177
358 357 360 2 359 360 357 356 299 272 274 274 279 288 298 311 320 331 350 356 11 23 25 26 27 30 34 36 37 37 36 41 47 53 60 63 57 65 71 83 123 134 163 180
351 353 354 355 357 358 353 355 340 275 263 267 268 269 280 286 300 308 318 334 348 2 15 22 21 27 30 33 37 40 39 40 42 42 48 53 65 68 69 76 99 134 144 160
346 349 353 355 357 357 351 352 347 307 258 256 260 262 260 271 278 290 300 305 317 337 348 357 8 15 21 27 32 35 41 41 40 43 44 50 54 60 71 81 88 99 120 138
343 343 347 349 355 354 353 348 347 324 273 249 250 254 256 258 265 273 281 289 289 303 325 337 345 357 10 13 20 28 29 34 44 44 44 49 52 53 57 61 65 77 82 86
340 346 346 346 350 351 348 349 344 331 297 257 243 248 251 254 254 259 265 273 281 284 294 312 326 336 346 357 2 12 20 20 27 38 42 46 52 56 58 55 53 56 61 61
338 344 343 348 344 347 346 345 341 331 308 271 248 242 246 248 251 250 251 258 266 273 278 285 301 312 323 338 349 352 1 9 14 17 26 33 38 46 54 57 60 58 58 48
334 337 340 344 345 346 343 343 340 329 306 275 258 241 240 244 246 250 247 246 255 262 268 274 280 293 302 316 325 333 339 343 352 3 6 10 17 20 23 35 45 44 44 46
330 333 339 341 342 344 339 338 336 327 300 273 258 250 237 238 242 244 247 243 243 252 259 264 269 277 285 294 303 313 315 319 326 337 341 346 353 357 359 1 359 6 10 8
329 331 337 340 340 342 338 335 330 322 296 272 248 249 242 234 236 239 242 244 240 243 251 257 261 270 276 281 286 292 300 297 302 310 312 313 324 328 330 332 333 340 342 341
328 332 335 337 339 339 334 330 325 316 291 269 247 238 243 235 233 235 238 241 242 241 245 252 255 263 268 275 279 284 289 292 293 296 299 300 309 310 310 310 311 318 323 325
324 327 329 334 336 334 330 325 320 311 287 262 248 236 234 237 231 231 232 236 238 241 243 249 252 258 261 267 274 279 284 288 291 290 288 292 298 303 304 305 306 308 311 319
320 326 326 330 334 330 327 320 315 308 290 266 248 238 231 232 231 229 231 231 234 236 241 244 250 256 254 259 264 271 277 281 282 285 288 290 291 294 297 299 301 303 308 313
320 323 327 329 330 325 322 319 313 304 298 274 258 248 242 235 227 225 227 229 229 230 234 239 242 250 250 255 258 263 269 274 278 277 283 286 290 294 296 295 297 301 305 307
317 319 322 326 325 319 318 315 305 299 293 283 262 253 245 239 235 228 226 228 228 227 229 235 236 248 248 251 258 259 263 267 272 276 279 283 287 290 294 298 300 302 303 305
315 318 322 323 318 317 314 312 301 296 292 287 268 256 250 244 240 234 227 229 229 226 225 231 236 242 246 247 249 256 259 263 268 273 276 281 286 289 293 296 297 299 303 306
314 316 318 316 314 312 310 307 300 294 289 284 273 257 255 249 244 238 232 228 231 228 222 227 233 238 244 244 243 250 256 260 265 268 273 276 281 285 290 294 297 299 301 304
312 313 312 312 309 308 307 304 299 293 289 284 273 259 254 251 247 239 233 227 228 229 224 224 228 233 237 244 245 245 252 257 261 263 267 271 277 281 286 289 292 297 300 304
308 309 310 308 309 307 303 300 295 292 289 282 273 261 255 256 251 241 231 224 225 229 229 226 228 231 233 239 245 246 248 253 257 259 263 268 273 278 283 287 290 295 301 304
Height
10556 10553 10548 10545 10542 10537 10532 10526 10523 10515 10508 10502 10498 10495 10489 10485 10482 10475 10465 10453 10437 10424 10414 10405 10397 10391 10385 10381 10377 10375 10371 10368 10366 10363 10362 10361 10362 10364 10363 10365 10366 10370 10370 10375
10567 10563 10560 10556 10552 10549 10546 10539 10535 10528 10519 10513 10508 10503 10498 10491 10487 10480 10473 10462 10450 10437 10423 10413 10405 10398 10391 10386 10383 10380 10375 10371 10370 10368 10366 10365 10366 10367 10365 10367 10371 10372 10374 10382
10579 10572 10567 10564 10560 10556 10553 10550 10546 10540 10533 10526 10519 10512 10507 10501 10495 10487 10480 10472 10463 10451 10438 10427 10418 10409 10401 10395 10388 10383 10379 10377 10374 10371 10370 10369 10369 10371 10368 10372 10378 10378 10384 10389
10591 10584 10577 10572 10567 10563 10559 10556 10553 10549 10544 10538 10531 10523 10516 10510 10504 10497 10489 10481 10475 10467 10456 10446 10434 10422 10414 10406 10399 10392 10387 10381 10379 10377 10375 10374 10374 10374 10374 10377 10382 10383 10389 10395
10600 10592 10585 10579 10573 10568 10564 10560 10557 10554 10551 10546 10541 10534 10527 10520 10513 10506 10500 10493 10486 10478 10471 10463 10449 10436 10426 10416 10409 10403 10397 10392 10387 10385 10382 10380 10380 10380 10382 10386 10386 10388 10393 10405
10605 10597 10591 10583 10576 10571 10567 10563 10559 10556 10554 10552 10548 10543 10537 10530 10523 10515 10510 10503 10497 10489 10481 10474 10464 10454 10441 10433 10424 10415 10409 10403 10396 10392 10388 10386 10386 10388 10389 10395 10394 10397 10404 10409
10610 10601 10592 10587 10580 10572 10568 10564 10561 10557 10554 10553 10551 10548 10544 10538 10532 10525 10520 10514 10507 10500 10493 10484 10476 10467 10459 10450 10440 10433 10424 10415 10407 10401 10397 10394 10393 10393 10396 10401 10405 10407 10412 10416
10609 10603 10597 10588 10579 10574 10565 10562 10560 10557 10553 10551 10551 10550 10547 10544 10539 10533 10527 10522 10517 10510 10504 10497 10489 10479 10471 10464 10457 10451 10445 10435 10424 10417 10412 10406 10401 10401 10403 10406 10411 10417 10422 10427
10609 10602 10596 10588 10581 10573 10564 10556 10555 10553 10551 10549 10547 10548 10548 10546 10543 10540 10534 10529 10524 10519 10513 10507 10500 10492 10485 10477 10471 10464 10458 10452 10444 10436 10428 10421 10416 10412 10413 10414 10419 10425 10433 10439
10607 10598 10590 10581 10576 10567 10559 10551 10545 10546 10546 10545 10545 10544 10545 10545 10544 10543 10539 10535 10530 10526 10521 10517 10511 10504 10498 10492 10486 10478 10472 10465 10459 10456 10451 10442 10432 10427 10425 10426 10430 10435 10443 10450
10600 10592 10585 10578 10570 10558 10551 10544 10535 10535 10538 10539 10539 10541 10541 10542 10542 10542 10541 10538 10534 10530 10526 10522 10518 10515 10508 10503 10499 10494 10487 10480 10474 10469 10462 10457 10454 10447 10441 10442 10444 10445 10449 10456
10595 10586 10579 10575 10565 10555 10542 10535 10529 10524 10525 10530 10532 10533 10535 10536 10537 10538 10539 10539 10537 10533 10529 10526 10522 10519 10515 10512 10507 10503 10500 10495 10488 10483 10478 10474 10470 10467 10464 10463 10465 10464 10466 10468
10588 10582 10577 10567 10556 10547 10537 10527 10521 10515 10514 10516 10521 10523 10526 10529 10530 10532 10534 10535 10535 10533 10531 10528 10525 10522 10520 10518 10515 10510 10507 10504 10501 10497 10492 10487 10484 10481 10479 10479 10478 10479 10481 10482
10577 10573 10562 10553 10548 10543 10530 10520 10511 10506 10503 10504 10508 10512 10515 10520 10523 10525 10527 10528 10530 10530 10529 10527 10525 10522 10520 10519 10517 10513 10510 10509 10507 10503 10502 10499 10496 10493 10491 10490 10490 10489 10489 10490
10568 10566 10557 10549 10537 10532 10520 10510 10502 10494 10491 10493 10494 10499 10505 10507 10512 10515 10518 10520 10522 10524 10525 10524 10523 10522 10519 10518 10517 10515 10513 10511 10508 10507 10505 10503 10501 10499 10497 10497 10497 10496 10496 10495
10556 10555 10548 10538 10525 10517 10507 10498 10490 10482 10477 10477 10480 10485 10490 10495 10498 10503 10508 10511 10513 10515 10518 10520 10520 10519 10518 10516 10514 10514 10512 10511 10509 10508 10506 10504 10503 10501 10499 10497 10496 10496 10495 10495
10545 10536 10530 10522 10512 10504 10494 10486 10476 10469 10462 10460 10464 10470 10474 10481 10485 10488 10495 10500 10504 10507 10509 10512 10514 10515 10513 10513 10512 10511 10509 10508 10507 10504 10504 10504 10502 10499 10497 10495 10493 10492 10491 10489
10525 10519 10512 10506 10499 10489 10479 10470 10459 10453 10447 10444 10445 10451 10454 10461 10469 10474 10479 10486 10493 10497 10499 10502 10506 10508 10508 10507 10507 10507 10505 10504 10503 10501 10500 10499 10498 10496 10494 10493 10491 10489 10488 10486
10506 10503 10498 10493 10486 10473 10462 10453 10444 10437 10432 10430 10427 10426 10432 10441 10448 10457 10464 10470 10477 10485 10489 10492 10498 10498 10498 10500 10500 10500 10500 10499 10498 10496 10495 10494 10492 10491 10489 10488 10486 10485 10483 10481
10491 10485 10479 10474 10467 10454 10446 10434 10426 10419 10415 10411 10407 10404 10409 10415 10424 10434 10444 10454 10461 10470 10475 10481 10489 10486 10490 10490 10491 10492 10493 10492 10491 10490 10489 10488 10486 10485 10484 10482 10480 10479 10477 10475
10472 10470 10464 10456 10450 10440 10428 10416 10404 10399 10398 10394 10388 10383 10381 10387 10399 10409 10421 10431 10444 10453 10459 10470 10478 10471 10479 10480 10480 10481 10483 10484 10483 10482 10481 10480 10479 10478 10477 10475 10473 10471 10469 10468
10454 10451 10443 10440 10429 10423 10411 10399 10385 10376 10380 10382 10374 10369 10363 10364 10368 10380 10395 10406 10420 10436 10446 10455 10464 10452 10468 10467 10468 10471 10472 10473 10474 10473 10473 10472 10470 10469 10467 10465 10463 10461 10459 10457
10436 10433 10429 10422 10413 10398 10395 10381 10368 10358 10358 10361 10357 10351 10351 10356 10355 10363 10373 10385 10401 10418 10431 10444 10448 10440 10452 10455 10456 10459 10461 10462 10463 10463 10462 10461 10460 10458 10457 10454 10453 10452 10449 10445
10412 10412 10413 10398 10385 10382 10370 10360 10349 10338 10337 10339 10340 10335 10336 10339 10342 10351 10362 10372 10388 10409 10427 10433 10429 10425 10433 10440 10444 10445 10449 10450 10452 10452 10452 10450 10448 10446 10445 10443 10441 10440 10437 10433
10393 10394 10386 10381 10367 10356 10346 10337 10325 10316 10314 10318 10319 10320 10319 10321 10329 10341 10349 10365 10383 10402 10410 10410 10410 10412 10414 10423 10431 10431 10434 10437 10439 10440 10441 10440 10437 10435 10433 10431 10428 10425 10423 10421
10375 10376 10363 10355 10348 10336 10320 10308 10300 10293 10294 10296 10299 10301 10302 10303 10312 10327 10339 10353 10372 10379 10383 10386 10389 10393 10398 10404 10413 10418 10420 10422 10425 10427 10428 10428 10427 10424 10422 10418 10415 10412 10407 10404
10356 10350 10337 10323 10318 10307 10297 10285 10276 10273 10274 10275 10280 10287 10279 10290 10303 10315 10326 10341 10344 10344 10354 10365 10371 10377 10384 10389 10393 10400 10405 10407 10410 10412 10414 10415 10416 10414 10411 10407 10404 10400 10395 10391